User: anonymous   Login
Location: Deer Lake
(49.1830°N, 57.4330°W)
Time: 03:06:56
(UTC-02:-30)
Language:

Cosmos 1707 - Orbit

View from above orbital plane
View from above orbital plane
View from above satellite
View from above satellite

Ground track
Ground track

The orbit data is extracted from the following two-line orbital elements,

1 16326U 85113A   17268.60074350 +.00000263 +00000-0 +12987-4 0  9997
2 16326 082.5089 109.7133 0009740 322.3254 037.7294 15.13411314732252
Epoch (UTC): 25 September 2017 14:25:04
Eccentricity: 0.0009740
inclination: 82.5089°
perigee height: 519 km
apogee height: 532 km
right ascension of ascending node: 109.7133°
argument of perigee: 322.3254°
revolutions per day: 15.13411314
mean anomaly at epoch: 37.7294°
orbit number at epoch: 73225

The dashed part of the orbit path shows where the satellite is in the earth's shadow,  

DLR